Location: Hopewell Observatory
(38.8698°N, 77.6988°W)
Time: 06:24:38
(UTC-04:00)

ERS-1 Rocket - Pass Details

Date: 26 May 2018
Orbit: 754 x 757 km, 98.6° (Epoch: 21 June)

Event Time Altitude Azimuth Distance (km) Brightness Sun altitude
Exits shadow 21:27:43 14° 119° (ESE) 2,012 4.5 -10.8°
Maximum altitude 21:31:06 28° 67° (ENE) 1,398 4.1 -11.3°
Drops below altitude 10° 21:35:19 10° 10° (N) 2,288 5.9 -12.0°
Sets 21:37:54 0° 359° (N) 3,218 6.9 -12.4°
